Content
SEND FEEDBACK

Daily
Averages
Monthly
Summary
United States of America

PUT IN BAY, OHIO


Home > North America > United States > Ohio
Elevation: 561 feet     Latitude: 41 39N     Longitude: 082 48W

WEATHER
 
SELECT A DAY
Number of Records: 122,466;   Date Range: 12/10/00 - 7/9/14
 
SHARE

PRINT THIS DATA

[ ← Previous Day ]
WEATHER ALMANAC - FEBRUARY 3, 2013
[ Next Day → ]
[ °C ]   °F
Weather ElementAverageHighLow
Temperature15.2 °F20.7 °F (6:00 pm)8.2 °F (4:00 am)
Dewpoint8.7 °F17.1 °F (6:00 pm)3.7 °F (6:00 am)
Humidity74.5 %87 % (4:00 am)59 % (11:00 pm)
Barometer29.96 in30.05 in (11:00 pm)29.90 in (3:00 pm)
Wind Speed7.5 mph16.1 mph (5:00 pm)
Wind Gust24.2 mph (5:00 pm)
Weather ElementAverage
Wind DirectionWNW (293.5 °)

Weather ElementTotal
Precipitation---
Heating Degree Days50.6 (Base 65)
Averaged from 26 records on February 3, 2013
WEATHER CONDITIONS BREAKOUT
WIND DIRECTION BREAKOUT
WEATHER BY HOUR - FEBRUARY 3, 2013
[ °C ]   °F
Local TimeTemperatureDewpointHumidityBarometerVisibilityWind DirectionWind SpeedGust SpeedPrecipitationEventsConditions
1:00 AM13.0 °F8.0 °F72 %30.02 inNorth (350°)3.5 mph
1:00 AM13.3 °F8.1 °F80 %30.02 inNorth (350°)3.5 mph
2:00 AM12.6 °F8.1 °F82 %30.01 inNorth (360°)2.3 mph
4:00 AM8.2 °F5.0 °F87 %29.98 inNorth (350°)1.2 mph
5:00 AM9.3 °F5.2 °F83 %29.96 inNW (320°)2.3 mph
6:00 AM8.4 °F3.7 °F81 %29.96 inNW (310°)2.3 mph
7:00 AM10.0 °F5.4 °F81 %29.95 inWNW (300°)2.3 mph
7:00 AM10.0 °F5.0 °F73 %29.95 inWNW (300°)2.3 mph
8:00 AM10.6 °F4.3 °F76 %29.96 inNW (310°)3.5 mph
9:00 AM11.3 °F4.3 °F73 %29.96 inNNW (340°)2.3 mph
10:00 AM12.9 °F4.5 °F69 %29.96 inWNW (300°)4.6 mph
11:00 AM14.4 °F4.8 °F66 %29.95 inWest (270°)6.9 mph
12:00 PM14.9 °F6.4 °F69 %29.94 inWest (260°)10.4 mph
1:00 PM16.5 °F9.1 °F73 %29.93 inWest (270°)10.4 mph
1:00 PM17.0 °F9.0 °F60 %29.93 inWest (270°)10.4 mph
2:00 PM18.0 °F11.5 °F76 %29.91 inWSW (250°)10.4 mph
3:00 PM19.4 °F12.2 °F74 %29.90 inWSW (240°)11.5 mph
4:00 PM20.3 °F13.3 °F74 %29.92 inWSW (250°)11.5 mph
5:00 PM20.5 °F15.1 °F80 %29.92 inWSW (250°)16.1 mph24.2 mph
6:00 PM20.7 °F17.1 °F86 %29.94 inWSW (250°)16.1 mph
7:00 PM20.5 °F16.0 °F83 %29.96 inWest (280°)10.4 mph
7:00 PM20.0 °F16.0 °F78 %29.96 inWest (280°)10.4 mph
8:00 PM19.8 °F11.8 °F71 %29.99 inWNW (290°)11.5 mph
9:00 PM19.0 °F10.4 °F69 %30.01 inWNW (300°)9.2 mph
10:00 PM17.4 °F5.9 °F61 %30.04 inWNW (290°)10.4 mph17.3 mph
11:00 PM17.4 °F5.4 °F59 %30.05 inWNW (290°)9.2 mph
Hourly data recorded from CXHA, located miles away from Put In Bay, Ohio







STORIES FROM OUR PARTNERS